map of NNT home
Great Circle Mapper logo
NNT - Airport
Location
City:  Nan, Thailand
ICAO / IATA:VTCN / NNT

Details
Type:Airport (Aerodrome, Airfield)
Latitude:1848'28"N (18.807914)
Longitude:10047'00"E (100.783419)
Datum:WGS 1984
Elevation:685 ft (209 m)
Variation:0.8W (WMM2015 magnetic declination)
Runways:1
Longest:6562 × 148 ft (2000 × 45 m), paved

Time
Time Zone:UTC+7
Local Time:

Weather
METAR:VTCN 221000Z 06001KT CAVOK 22/07 Q1014 A2997 RWY/02 INFO/W
TAF:VTCN 220500Z 2206/2306 04007KT 9000 FEW040
BECMG 2212/2214 05005KT 7000 FEW035
BECMG 2223/2300 00000KT 35000 BR NSC

Related Locations
Nearby:
Farthest:SJA: 12081 mi / 19442 km
San Juan (San Juan de Marcona), PE

Find:

   beyond  
but within

Other Information
Maps:
NOTAMs:
Links:
Sources:

  
flag of Thailand   

Sectional Chart

Flight Planning
at skyvector.com

Satellite Image

Google Maps Satellite View

 

Copyright © 2004-2014 Karl L. Swartz. All rights reserved.
The Great Circle Mapper name and logo are trademarks of the Great Circle Mapper.
All other trademarks mentioned herein belong to their respective owners.
Please see credits for attibutions and further copyright information.

  Follow gcmap on Facebook Follow gcmap on Twitter

hCard Microformat

Geo Microformat